Content
SEND FEEDBACK

Daily
Averages
Monthly
Summary
United States of America

TERRELL, TEXAS


Home > North America > United States > Texas
Elevation: 479 feet     Latitude: 32 42N     Longitude: 096 16W

WEATHER
 
SELECT A DAY
Number of Records: 176,777;   Date Range: 5/20/97 - 10/20/14
 
SHARE

PRINT THIS DATA

[ ← Previous Day ]
WEATHER ALMANAC - JANUARY 31, 2013
[ Next Day → ]
[ °C ]   °F
Weather ElementAverageHighLow
Temperature48.7 °F66.9 °F (2:53 pm)30.9 °F (7:53 am)
Dewpoint23.7 °F28.9 °F (9:53 pm)18 °F (3:53 pm)
Humidity43.3 %79 % (7:53 am)15 % (3:53 pm)
Barometer30.19 in30.31 in (11:53 pm)30.12 in (2:53 pm)
Wind Speed9.4 mph18.4 mph (2:53 pm)
Wind Gust25.3 mph (2:53 pm)
Weather ElementAverage
Visibility10 mi
Wind DirectionSSE (148.7 °)

Weather ElementTotal
Precipitation---
Heating Degree Days16.1 (Base 65)
Averaged from 23 records on January 31, 2013
WEATHER CONDITIONS BREAKOUT
WIND DIRECTION BREAKOUT
WEATHER BY HOUR - JANUARY 31, 2013
[ °C ]   °F
Local TimeTemperatureDewpointHumidityBarometerVisibilityWind DirectionWind SpeedGust SpeedPrecipitationEventsConditions
1:53 AM33.1 °F24.1 °F70 %30.16 in10.0 miCalmClear
2:53 AM34.0 °F23.0 °F64 %30.17 in10.0 miSSW (200°)4.6 mphClear
3:53 AM34.0 °F23.0 °F64 %30.17 in10.0 miSouth (180°)5.8 mphClear
4:53 AM35.1 °F21.9 °F59 %30.17 in10.0 miSouth (190°)3.5 mphClear
5:53 AM32.0 °F23.0 °F69 %30.16 in10.0 miSouth (170°)4.6 mphClear
6:53 AM33.1 °F23.0 °F66 %30.17 in10.0 miCalmClear
7:53 AM30.9 °F25.0 °F79 %30.21 in10.0 miSouth (180°)5.8 mphClear
8:53 AM39.9 °F27.0 °F60 %30.22 in10.0 miSSW (200°)8.1 mphClear
9:53 AM48.9 °F25.0 °F39 %30.22 in10.0 miSSW (210°)12.7 mphClear
10:53 AM55.0 °F21.9 °F28 %30.23 in10.0 miSSW (200°)11.5 mphClear
11:53 AM61.0 °F24.1 °F24 %30.21 in10.0 miSW (220°)11.5 mphClear
12:53 PM63.0 °F21.0 °F20 %30.18 in10.0 miSW (230°)13.8 mph19.6 mphClear
1:53 PM66.0 °F21.0 °F18 %30.13 in10.0 miSW (220°)17.3 mph21.9 mphClear
2:53 PM66.9 °F19.0 °F16 %30.12 in10.0 miSSW (200°)18.4 mph25.3 mphClear
3:53 PM66.9 °F18.0 °F15 %30.12 in10.0 miSW (220°)18.4 mph23.0 mphClear
4:53 PM64.9 °F19.9 °F18 %30.12 in10.0 miSSW (200°)11.5 mphClear
5:53 PM61.0 °F21.9 °F22 %30.15 in10.0 miSSW (200°)5.8 mphClear
6:53 PM54.0 °F24.1 °F31 %30.17 in10.0 miSouth (170°)6.9 mphClear
7:53 PM52.0 °F27.0 °F38 %30.19 in10.0 miSSE (160°)4.6 mphClear
8:53 PM46.9 °F28.0 °F48 %30.23 in10.0 miCalmClear
9:53 PM52.0 °F28.9 °F41 %30.27 in10.0 miNNE (20°)16.1 mph23.0 mphClear
10:53 PM46.0 °F28.0 °F50 %30.30 in10.0 miNNE (20°)17.3 mphClear
11:53 PM43.0 °F28.0 °F56 %30.31 in10.0 miNNE (30°)17.3 mphClear
Hourly data recorded from KTRL, located miles away from Terrell, Texas







STORIES FROM OUR PARTNERS